ASNARO

Last updated on Mon Jun 22 2026 00:02:51 GMT+0000 (Coordinated Universal Time)

1 40298U 14070A 26172.50572003 .00008347 00000+0 39614-3 0 9992 2 40298 97.3443 248.5041 0006050 151.6221 208.5345 15.19488914644661
UTC large
Height (km)
Speed (km/s)
/
Latitude / Longitude
Inclination (degrees)
Orbital Period (minutes)
Azimuth
Elevation
Range (km)
Doppler Factor

Next 0 passes for location: London (51.5072 / 0.1276)

No passes found over London.
ASNARO